Location: Puketoi
(40.5833°S, 176.0167°E)
Time: 10:51:04
(UTC+00:00)

PAYLOAD A - Visible Passes

Search period start: 22 September 2023 00:00
Search period end: 02 October 2023 00:00
Orbit: 690 x 832 km, 98.5° (Epoch: 21 September)

Date Brightness Start Highest point End Pass type
(mag) Time Alt. Az. Time Alt. Az. Time Alt. Az.
22 Sep 6.4 14:19:50 20° SSE 14:19:50 20° SSE 14:21:42 10° S visible
22 Sep 6.3 15:59:55 12° SW 15:59:55 12° SW 16:00:21 10° SW visible
23 Sep 6.8 13:41:12 15° SE 13:41:12 15° SE 13:42:47 10° SSE visible
23 Sep 6.0 15:21:18 20° SSW 15:21:18 20° SSW 15:22:59 10° SSW visible
24 Sep 5.9 14:42:41 26° S 14:42:41 26° S 14:45:01 10° S visible
25 Sep 6.3 14:04:04 22° SSE 14:04:04 22° SSE 14:06:33 10° S visible
25 Sep 5.9 15:44:09 19° SW 15:44:09 19° SW 15:45:47 10° SSW visible
26 Sep 6.9 13:25:27 13° SE 13:25:27 13° SE 13:27:06 10° SSE visible
26 Sep 5.6 15:05:32 29° SSW 15:05:32 29° SSW 15:08:09 10° SSW visible
27 Sep 5.8 14:26:55 30° SSE 14:26:55 30° SSE 14:30:00 10° S visible
27 Sep 6.0 16:07:01 15° SW 16:07:01 15° SW 16:08:19 10° SW visible
28 Sep 6.4 13:48:18 20° SE 13:48:18 20° SE 13:51:16 10° SSE visible
28 Sep 5.4 15:28:24 28° SW 15:28:24 28° SW 15:31:06 10° SSW visible
29 Sep 5.2 14:49:46 39° S 14:49:46 39° S 14:53:14 10° S visible
29 Sep 6.2 16:29:52 11° WSW 16:29:52 11° WSW 16:30:17 10° SW visible
30 Sep 5.9 14:11:09 30° SE 14:11:09 30° SE 14:14:53 10° S visible
30 Sep 5.5 15:51:15 24° SW 15:51:15 24° SW 15:53:48 10° SSW visible
01 Oct 6.6 13:32:32 16° ESE 13:32:34 16° ESE 13:35:46 10° SSE visible
01 Oct 4.9 15:12:38 43° SSW 15:12:38 43° SSW 15:16:18 10° SSW visible
